GLO1354 SBSP-SBRP

Flight info

Callsign GLO1354
Flight time 0h 40m
Altitude 28000
Route GERTU UZ25 KOMTO
Aircraft B738/M-SDE2E3FGHIRWXY/LB1

Departure

Time 2026-05-03 21:58
Airport Congonhas–Deputado Freitas Nobre Airport (SBSP)

Arrival

Time 2026-05-03 22:38
Airport Leite Lopes Airport (SBRP)
Time Latitude Longitude Altitude Speed Heading
2026-05-03 21:31 -23.62479 -46.65984 2599 ft 0 kts 237°
2026-05-03 21:48 -23.62471 -46.65970 2599 ft 3 kts 243°
2026-05-03 21:48 -23.62465 -46.65951 2599 ft 3 kts 295°
2026-05-03 21:48 -23.62477 -46.65936 2600 ft 3 kts 320°
2026-05-03 21:49 -23.62495 -46.65921 2600 ft 3 kts 327°
2026-05-03 21:49 -23.62509 -46.65911 2600 ft 0 kts 327°
2026-05-03 21:52 -23.62503 -46.65916 2600 ft 4 kts 327°
2026-05-03 21:53 -23.62497 -46.65920 2600 ft 6 kts 327°
2026-05-03 21:53 -23.62482 -46.65928 2600 ft 7 kts 339°
2026-05-03 21:53 -23.62439 -46.65942 2600 ft 6 kts 344°
2026-05-03 21:53 -23.62396 -46.65955 2599 ft 6 kts 344°
2026-05-03 21:54 -23.62355 -46.65972 2599 ft 6 kts 329°
2026-05-03 21:54 -23.62353 -46.65974 2599 ft 6 kts 329°
2026-05-03 21:54 -23.62342 -46.65981 2599 ft 6 kts 329°
2026-05-03 21:54 -23.62306 -46.66005 2599 ft 6 kts 329°
2026-05-03 21:55 -23.62270 -46.66028 2599 ft 6 kts 330°
2026-05-03 21:55 -23.62234 -46.66049 2599 ft 6 kts 332°
2026-05-03 21:55 -23.62196 -46.66073 2598 ft 7 kts 328°
2026-05-03 21:55 -23.62153 -46.66102 2590 ft 8 kts 328°
2026-05-03 21:56 -23.62107 -46.66130 2594 ft 8 kts 336°
2026-05-03 21:56 -23.62052 -46.66130 2594 ft 9 kts 27°
2026-05-03 21:56 -23.62026 -46.66098 2595 ft 1 kts 84°
2026-05-03 21:56 -23.62029 -46.66095 2586 ft 1 kts 134°
2026-05-03 21:57 -23.62030 -46.66095 2586 ft 0 kts 135°
2026-05-03 21:57 -23.62086 -46.66050 2596 ft 38 kts 147°
2026-05-03 21:57 -23.62536 -46.65735 2603 ft 113 kts 148°
2026-05-03 21:57 -23.63356 -46.65189 2884 ft 150 kts 149°
2026-05-03 21:58 -23.64244 -46.64606 3857 ft 150 kts 150°
2026-05-03 21:58 -23.65336 -46.64436 4492 ft 172 kts 189°
2026-05-03 21:58 -23.66640 -46.64588 4833 ft 203 kts 176°
2026-05-03 21:58 -23.68164 -46.64569 5040 ft 232 kts 178°
2026-05-03 21:59 -23.69819 -46.64613 5575 ft 244 kts 180°
2026-05-03 21:59 -23.71568 -46.64897 6045 ft 268 kts 204°
2026-05-03 21:59 -23.73006 -46.66225 6841 ft 277 kts 233°
2026-05-03 21:59 -23.74125 -46.67940 7769 ft 278 kts 235°
2026-05-03 22:00 -23.75239 -46.69665 8719 ft 279 kts 235°
2026-05-03 22:00 -23.76352 -46.71360 9716 ft 278 kts 236°
2026-05-03 22:00 -23.77510 -46.73098 10418 ft 290 kts 235°
2026-05-03 22:00 -23.78759 -46.74953 10627 ft 317 kts 234°
2026-05-03 22:01 -23.80124 -46.76964 10900 ft 339 kts 234°
2026-05-03 22:01 -23.81562 -46.79068 11452 ft 350 kts 234°
2026-05-03 22:01 -23.83030 -46.81210 12171 ft 354 kts 234°
2026-05-03 22:01 -23.84513 -46.83373 12979 ft 356 kts 234°
2026-05-03 22:02 -23.84934 -46.84000 13205 ft 357 kts 236°
2026-05-03 22:02 -23.85931 -46.86205 13896 ft 360 kts 255°
2026-05-03 22:02 -23.86171 -46.88891 14641 ft 362 kts 273°
2026-05-03 22:03 -23.85626 -46.91582 15433 ft 366 kts 291°
2026-05-03 22:03 -23.84422 -46.94049 16242 ft 369 kts 298°
2026-05-03 22:03 -23.83085 -46.96465 16987 ft 372 kts 299°
2026-05-03 22:03 -23.81726 -46.98880 17718 ft 375 kts 298°
2026-05-03 22:04 -23.80364 -47.01323 18465 ft 377 kts 298°
2026-05-03 22:04 -23.79010 -47.03788 19095 ft 379 kts 297°
2026-05-03 22:04 -23.77660 -47.06267 19739 ft 381 kts 297°
2026-05-03 22:04 -23.76305 -47.08762 20382 ft 382 kts 297°
2026-05-03 22:05 -23.74676 -47.11084 21005 ft 393 kts 312°
2026-05-03 22:05 -23.72450 -47.12825 21603 ft 405 kts 326°
2026-05-03 22:05 -23.69757 -47.13914 22201 ft 420 kts 341°
2026-05-03 22:05 -23.66862 -47.14506 22789 ft 426 kts 343°
2026-05-03 22:06 -23.63927 -47.15073 23296 ft 430 kts 342°
2026-05-03 22:06 -23.60977 -47.15683 23787 ft 433 kts 342°
2026-05-03 22:06 -23.58017 -47.16326 24253 ft 435 kts 341°
2026-05-03 22:06 -23.55046 -47.16980 24720 ft 436 kts 341°
2026-05-03 22:07 -23.52065 -47.17637 25201 ft 437 kts 341°
2026-05-03 22:07 -23.49124 -47.18283 25659 ft 437 kts 341°
2026-05-03 22:07 -23.46137 -47.18938 26133 ft 437 kts 341°
2026-05-03 22:07 -23.43151 -47.19593 26599 ft 439 kts 341°
2026-05-03 22:08 -23.40151 -47.20251 27042 ft 440 kts 341°
2026-05-03 22:08 -23.37137 -47.20910 27475 ft 441 kts 340°
2026-05-03 22:08 -23.34128 -47.21568 27952 ft 441 kts 340°
2026-05-03 22:08 -23.31107 -47.22228 28188 ft 443 kts 340°
2026-05-03 22:09 -23.25082 -47.23542 28193 ft 441 kts 341°
2026-05-03 22:10 -23.16078 -47.25504 28181 ft 441 kts 341°
2026-05-03 22:10 -23.10060 -47.26814 28187 ft 441 kts 341°
2026-05-03 22:11 -23.04045 -47.28121 28185 ft 441 kts 341°
2026-05-03 22:11 -22.98026 -47.29429 28184 ft 441 kts 341°
2026-05-03 22:12 -22.92007 -47.30735 28184 ft 441 kts 341°
2026-05-03 22:12 -22.85986 -47.32042 28181 ft 441 kts 341°
2026-05-03 22:13 -22.80007 -47.33337 28169 ft 441 kts 341°
2026-05-03 22:13 -22.73978 -47.34643 28164 ft 441 kts 341°
2026-05-03 22:14 -22.68078 -47.36276 28161 ft 431 kts 330°
2026-05-03 22:14 -22.62976 -47.39454 28149 ft 418 kts 316°
2026-05-03 22:15 -22.58430 -47.43332 28147 ft 419 kts 316°
2026-05-03 22:15 -22.53815 -47.47231 28155 ft 421 kts 316°
2026-05-03 22:16 -22.49963 -47.50451 28156 ft 421 kts 316°
2026-05-03 22:16 -22.45238 -47.54233 28144 ft 427 kts 323°
2026-05-03 22:17 -22.39692 -47.56772 28137 ft 440 kts 338°
2026-05-03 22:17 -22.33597 -47.57936 28144 ft 447 kts 345°
2026-05-03 22:18 -22.27438 -47.58903 28147 ft 447 kts 345°
2026-05-03 22:18 -22.21332 -47.59889 27616 ft 445 kts 345°
2026-05-03 22:18 -22.18294 -47.60389 27050 ft 439 kts 345°
2026-05-03 22:19 -22.15301 -47.60886 26480 ft 434 kts 345°
2026-05-03 22:19 -22.12324 -47.61384 25893 ft 430 kts 345°
2026-05-03 22:19 -22.09372 -47.61879 25286 ft 428 kts 345°
2026-05-03 22:19 -22.06437 -47.62373 24684 ft 426 kts 345°
2026-05-03 22:20 -22.03511 -47.62864 24082 ft 424 kts 346°
2026-05-03 22:20 -22.00605 -47.63352 23443 ft 421 kts 346°
2026-05-03 22:20 -21.97715 -47.63836 22788 ft 418 kts 346°
2026-05-03 22:20 -21.94847 -47.64314 22183 ft 415 kts 346°
2026-05-03 22:21 -21.92029 -47.64784 21595 ft 412 kts 346°
2026-05-03 22:21 -21.89199 -47.65257 21008 ft 409 kts 347°
2026-05-03 22:21 -21.86389 -47.65726 20405 ft 407 kts 347°
2026-05-03 22:21 -21.83593 -47.66193 19829 ft 405 kts 347°
2026-05-03 22:22 -21.80810 -47.66658 19228 ft 404 kts 347°
2026-05-03 22:22 -21.78070 -47.67115 18653 ft 403 kts 348°
2026-05-03 22:22 -21.75300 -47.67577 18013 ft 402 kts 348°
2026-05-03 22:22 -21.72545 -47.68036 17415 ft 399 kts 348°
2026-05-03 22:23 -21.69816 -47.68491 16839 ft 396 kts 348°
2026-05-03 22:23 -21.67107 -47.68941 16272 ft 392 kts 348°
2026-05-03 22:23 -21.64420 -47.69389 15704 ft 389 kts 348°
2026-05-03 22:23 -21.61754 -47.69833 15129 ft 387 kts 348°
2026-05-03 22:24 -21.59147 -47.70453 14487 ft 383 kts 340°
2026-05-03 22:24 -21.56625 -47.71385 13868 ft 382 kts 338°
2026-05-03 22:24 -21.56334 -47.71497 13784 ft 381 kts 338°
2026-05-03 22:24 -21.53874 -47.72459 13167 ft 368 kts 338°
2026-05-03 22:25 -21.51511 -47.73385 12622 ft 359 kts 338°
2026-05-03 22:25 -21.49167 -47.74297 12117 ft 355 kts 338°
2026-05-03 22:25 -21.46845 -47.75191 11607 ft 353 kts 339°
2026-05-03 22:25 -21.44538 -47.76072 11109 ft 351 kts 340°
2026-05-03 22:26 -21.42291 -47.76925 10871 ft 341 kts 340°
2026-05-03 22:26 -21.40092 -47.77757 10687 ft 330 kts 340°
2026-05-03 22:26 -21.37962 -47.78561 10546 ft 319 kts 341°
2026-05-03 22:26 -21.35902 -47.79338 10406 ft 309 kts 341°
2026-05-03 22:27 -21.33902 -47.80091 10274 ft 300 kts 341°
2026-05-03 22:27 -21.31958 -47.80823 10148 ft 292 kts 341°
2026-05-03 22:27 -21.30062 -47.81537 9923 ft 288 kts 341°
2026-05-03 22:27 -21.28178 -47.82245 9618 ft 286 kts 342°
2026-05-03 22:28 -21.26303 -47.82950 9314 ft 284 kts 341°
2026-05-03 22:28 -21.24439 -47.83651 9011 ft 283 kts 342°
2026-05-03 22:28 -21.22587 -47.84348 8665 ft 283 kts 342°
2026-05-03 22:28 -21.20731 -47.85045 8356 ft 282 kts 341°
2026-05-03 22:29 -21.18887 -47.85737 8067 ft 280 kts 342°
2026-05-03 22:29 -21.17051 -47.86427 7766 ft 278 kts 342°
2026-05-03 22:29 -21.15228 -47.87112 7481 ft 277 kts 343°
2026-05-03 22:29 -21.13435 -47.87785 7213 ft 275 kts 342°
2026-05-03 22:30 -21.11660 -47.88453 7120 ft 266 kts 343°
2026-05-03 22:30 -21.09934 -47.89101 7012 ft 259 kts 343°
2026-05-03 22:30 -21.08260 -47.89728 6903 ft 251 kts 343°
2026-05-03 22:30 -21.06749 -47.90297 6854 ft 238 kts 343°
2026-05-03 22:31 -21.05230 -47.90867 6750 ft 225 kts 343°
2026-05-03 22:31 -21.03789 -47.91408 6667 ft 212 kts 343°
2026-05-03 22:31 -21.02464 -47.91905 6589 ft 198 kts 343°
2026-05-03 22:31 -21.01200 -47.92354 6437 ft 189 kts 352°
2026-05-03 22:32 -20.99988 -47.92177 6272 ft 172 kts 34°
2026-05-03 22:32 -20.99145 -47.91306 6203 ft 173 kts 60°
2026-05-03 22:32 -20.98747 -47.90094 6020 ft 172 kts 74°
2026-05-03 22:32 -20.98398 -47.88876 5806 ft 170 kts 74°
2026-05-03 22:33 -20.98055 -47.87677 5632 ft 166 kts 74°
2026-05-03 22:33 -20.97722 -47.86505 5463 ft 165 kts 75°
2026-05-03 22:33 -20.97392 -47.85334 5277 ft 163 kts 75°
2026-05-03 22:33 -20.97071 -47.84173 5115 ft 162 kts 79°
2026-05-03 22:34 -20.97232 -47.83015 4890 ft 161 kts 124°
2026-05-03 22:34 -20.98129 -47.82324 4726 ft 163 kts 159°
2026-05-03 22:34 -20.99228 -47.81971 4527 ft 166 kts 160°
2026-05-03 22:34 -21.00319 -47.81611 4314 ft 160 kts 160°
2026-05-03 22:35 -21.01355 -47.81275 4093 ft 151 kts 160°
2026-05-03 22:35 -21.02319 -47.80964 3906 ft 139 kts 160°
2026-05-03 22:35 -21.03220 -47.80674 3739 ft 132 kts 160°
2026-05-03 22:35 -21.04105 -47.80389 3575 ft 134 kts 161°
2026-05-03 22:36 -21.05001 -47.80100 3407 ft 135 kts 162°
2026-05-03 22:36 -21.05893 -47.79814 3228 ft 135 kts 162°
2026-05-03 22:36 -21.06795 -47.79526 3039 ft 134 kts 163°
2026-05-03 22:36 -21.07654 -47.79253 2863 ft 126 kts 163°
2026-05-03 22:37 -21.08508 -47.78982 2712 ft 133 kts 161°
2026-05-03 22:37 -21.09407 -47.78692 2523 ft 136 kts 162°
2026-05-03 22:37 -21.10303 -47.78404 2333 ft 133 kts 163°
2026-05-03 22:37 -21.11184 -47.78123 2154 ft 132 kts 163°
2026-05-03 22:38 -21.12068 -47.77840 1974 ft 133 kts 162°
2026-05-03 22:38 -21.12964 -47.77555 1820 ft 131 kts 162°
2026-05-03 22:38 -21.13703 -47.77309 1801 ft 82 kts 165°
2026-05-03 22:38 -21.14054 -47.77202 1803 ft 36 kts 163°
2026-05-03 22:39 -21.14168 -47.77166 1800 ft 16 kts 165°
2026-05-03 22:39 -21.14271 -47.77139 1802 ft 15 kts 180°
2026-05-03 22:39 -21.14302 -47.77166 1804 ft 1 kts 263°
2026-05-03 22:39 -21.14301 -47.77185 1804 ft 4 kts 276°
2026-05-03 22:40 -21.14295 -47.77226 1802 ft 7 kts 284°
2026-05-03 22:40 -21.14275 -47.77289 1802 ft 10 kts 300°
2026-05-03 22:40 -21.14208 -47.77330 1803 ft 13 kts 343°
2026-05-03 22:40 -21.14113 -47.77361 1800 ft 15 kts 343°
2026-05-03 22:41 -21.14016 -47.77392 1800 ft 14 kts 343°
2026-05-03 22:41 -21.13941 -47.77416 1801 ft 0 kts 343°
2026-05-03 22:41 -21.13928 -47.77420 1804 ft 4 kts 343°
2026-05-03 22:42 -21.13884 -47.77434 1803 ft 8 kts 343°
2026-05-03 22:42 -21.13858 -47.77483 1803 ft 7 kts 257°
2026-05-03 22:42 -21.13873 -47.77536 1804 ft 8 kts 233°
2026-05-03 22:42 -21.13894 -47.77544 1804 ft 2 kts 188°
2026-05-03 22:43 -21.13909 -47.77564 1802 ft 5 kts 244°
2026-05-03 22:43 -21.13916 -47.77584 1804 ft 1 kts 251°
2026-05-03 22:43 -21.13917 -47.77590 1801 ft 0 kts 253°